Location: Gisborne
(38.6530°S, 178.0040°E)
Time: 09:35:17
(UTC+13:00)

Cosmos 1862 Rocket - Pass Details

Date: 24 January 2019
Orbit: 604 x 633 km, 82.5° (Epoch: 20 February)

Event Time Altitude Azimuth Distance (km) Brightness Sun altitude
Exits shadow 23:23:40 49° 144° (SE) 815 4.2 -26.0°
Drops below altitude 10° 23:27:04 10° 167° (SSE) 2,010 6.7 -26.4°
Sets 23:29:19 0° 169° (S) 2,920 7.7 -26.6°
